Location: Pensacola
(30.4142°N, 87.2155°W)
Time: 11:47:07
(UTC-05:00)

QB50P2 - Visible Passes

Search period start: 28 May 2023 00:00
Search period end: 07 June 2023 00:00
Orbit: 581 x 596 km, 98.0° (Epoch: 28 May)

Date Brightness Start Highest point End Pass type
(mag) Time Alt. Az. Time Alt. Az. Time Alt. Az.
28 May ? 02:26:45 10° NNE 02:28:35 25° NNE 02:28:35 25° NNE visible
29 May ? 02:34:21 10° NNE 02:36:21 28° NNE 02:36:21 28° NNE visible
30 May ? 02:41:59 10° N 02:44:06 29° N 02:44:06 29° N visible
31 May ? 02:49:39 10° N 02:51:51 29° N 02:51:51 29° N visible
01 Jun ? 02:57:20 10° N 02:59:35 28° NNW 02:59:35 28° NNW visible
02 Jun ? 03:05:04 10° N 03:07:19 26° NNW 03:07:19 26° NNW visible
03 Jun ? 03:12:50 10° NNW 03:15:02 24° NW 03:15:02 24° NW visible
04 Jun ? 01:45:40 10° NE 01:46:14 12° NE 01:46:14 12° NE visible
04 Jun ? 03:20:39 10° NNW 03:22:45 21° NW 03:22:45 21° NW visible
05 Jun ? 01:52:56 10° NE 01:53:57 15° NE 01:53:57 15° NE visible
05 Jun ? 03:28:31 10° NNW 03:30:28 18° NW 03:30:28 18° NW visible
06 Jun ? 02:00:16 10° NE 02:01:39 18° NE 02:01:39 18° NE visible
06 Jun ? 03:36:29 10° NNW 03:38:10 15° NW 03:38:10 15° NW visible
